Location: Newark
(30.0333°N, 31.2167°E)
Time: 20:34:22
(UTC+00:00)

Tiros 1 - Pass Details

Date: 31 January 2020
Orbit: 631 x 664 km, 48.4° (Epoch: 19 February)

Event Time Altitude Azimuth Distance (km) Brightness Sun altitude
Rises 06:45:34 0° 214° (SW) 2,901 10.5 21.8°
Reaches altitude 10° 06:47:55 10° 209° (SSW) 1,998 9.8 22.2°
Maximum altitude 06:52:22 51° 134° (SE) 796 9.0 23.0°
Drops below altitude 10° 06:56:52 10° 59° (ENE) 2,019 10.0 23.8°
Sets 06:59:15 0° 54° (NE) 2,934 10.7 24.2°
